This is the latest recevied weather packets stored in our database for station/object W5GBS-9. If no packets are shown the sender has not sent any weather packets the latest 10 day(s).
| Time | Temp. | Humidity | Pressure | Rain* | Wind** | Luminosity | Snow |
|---|---|---|---|---|---|---|---|
| 1777501015 | 28.33° C | 100% | 1014 hPa | 0.25 mm | - | - | - |
| 1777500294 | 29.44° C | 100% | 1014.1 hPa | 0.25 mm | - | - | - |
| 1777499573 | 31.11° C | 100% | 1014 hPa | 0.25 mm | - | - | - |
| 1777498853 | 33.33° C | 100% | 1014 hPa | 0 mm | - | - | - |
| 1777498135 | 33.33° C | 100% | 1014.1 hPa | 0 mm | - | - | - |
| 1777497411 | 33.33° C | 100% | 1014.2 hPa | 0 mm | - | - | - |
| 1777496691 | 33.33° C | 100% | 1014.2 hPa | 0 mm | - | - | - |
| 1777495970 | 32.78° C | 100% | 1014.2 hPa | 0 mm | - | - | - |
| 1777495249 | 32.22° C | 100% | 1014.7 hPa | 0 mm | - | - | - |
| 1777495249 | 32.22° C | 100% | 1014.7 hPa | 0 mm | - | - | - |
| 1777494528 | 31.11° C | 100% | 1015 hPa | 0 mm | - | - | - |
| 1777493807 | 31.67° C | 100% | 1015.4 hPa | 0 mm | - | - | - |
| 1777493087 | 31.67° C | 100% | 1015.4 hPa | 0 mm | - | - | - |
| 1777492365 | 30.56° C | 100% | 1015.8 hPa | 0 mm | - | - | - |
| 1777491646 | 30.56° C | 100% | 1016 hPa | 0 mm | - | - | - |
| 1777490924 | 31.67° C | 100% | 1015.9 hPa | 0 mm | - | - | - |
| 1777490204 | 32.22° C | 100% | 1016.1 hPa | 0 mm | - | - | - |
| 1777489484 | 31.11° C | 100% | 1016.3 hPa | 0 mm | - | - | - |
| 1777488763 | 31.11° C | 100% | 1016.3 hPa | 0 mm | - | - | - |
| 1777488041 | 30.56° C | 100% | 1016.2 hPa | 0 mm | - | - | - |
| 1777487321 | 30° C | 100% | 1016.2 hPa | 0 mm | - | - | - |
| 1777486601 | 29.44° C | 100% | 1016.6 hPa | 0 mm | - | - | - |
| 1777485880 | 29.44° C | 100% | 1016.8 hPa | 0 mm | - | - | - |
| 1777485158 | 29.44° C | 100% | 1017.1 hPa | 0 mm | - | - | - |
| 1777484439 | 29.44° C | 100% | 1017.2 hPa | 0 mm | - | - | - |
* Rain latest hour (hover to see other rain measurements)
** Current wind speed in m/s (hover to see current wind gust speed)